Agenzia del porto Bunker Vibo
  Sponsor: MINICAT 

OBSERVATIONS
LATEST DOWNLOAD: 2019/01/20 06:13:09

STATION EGLL/037720
Sunday, 20 January 2019, 04:50 UTC

pressure 1013 hPa
temperature -1 °C
dewpoint -2 °C
humidity 92.9%
wind E-4 knots
visibility Fair
sky Few clouds
weather -

MAIN LOCATIONS

HOURLY DATA

HOTEL RESERVATION

WEATHER REPORT WEATHER REPORT

METEOMAR METEOMAR

WEATHER CHARTS WEATHER CHARTS

WEBCAM WEBCAM



 LONDON-HEATHROW
COUNTRY
UNITED KINGDOM
     LAT
51.48 N
    LON
0.45 W
    ELEV
24 m
     REGION
-
     PROVINCE
-
     ZONE
-

LATEST 24 HOURS ( 48 OBSERVATIONS )
Observation time
UTC
temperature
humidity
%
pressure
hPa
  wind
knots
2019/01/20 04:50-1 921013E-4
2019/01/20 04:20-1 1001013NE-3
2019/01/20 03:50-1 921013NE-2
2019/01/20 03:20-1 921013NNE-2
2019/01/20 02:500 931013N-2
2019/01/20 02:200 931013VAR-2
2019/01/20 01:500 861012NE-3
2019/01/20 01:201 861012NNE-3
2019/01/20 00:501 931012NE-3
2019/01/20 00:201 931012NE-4
2019/01/19 23:502 861011NE-3
2019/01/19 23:202 861011ENE-2
2019/01/19 22:503 801011E-3
2019/01/19 22:203 801011ESE-4
2019/01/19 21:504 801011ESE-6
2019/01/19 21:204 861010ESE-7
2019/01/19 20:504 861010ESE-6
2019/01/19 20:204 861010ESE-8
2019/01/19 19:504 861010E-8
2019/01/19 19:204 861010ESE-8
2019/01/19 18:505 861009E-6
2019/01/19 17:505 861009ESE-9
2019/01/19 17:205 931009E-8
2019/01/19 16:505 931009ESE-7
2019/01/19 16:205 931008ESE-8
2019/01/19 15:505 931008ESE-7
2019/01/19 15:205 931008ESE-6
2019/01/19 14:505 931008ESE-7
2019/01/19 14:205 931008ESE-9
2019/01/19 13:505 861008ESE-8
2019/01/19 13:205 861008ESE-8
2019/01/19 12:505 861008ESE-9
2019/01/19 12:205 861009ESE-10
2019/01/19 11:505 861009ESE-10
2019/01/19 11:205 861009ESE-10
2019/01/19 10:504 861009ESE-11
2019/01/19 10:204 861009ESE-11
2019/01/19 09:504 861009ESE-10
2019/01/19 09:204 861009ESE-11
2019/01/19 08:504 861009ESE-11
2019/01/19 08:203 931009ESE-10
2019/01/19 07:504 801009SE-9
2019/01/19 07:204 801009SE-9
2019/01/19 06:504 801009ESE-9
2019/01/19 06:204 801009SE-10
2019/01/19 05:504 751009SE-9
2019/01/19 05:204 751009SE-9
2019/01/19 04:504 751010SE-10
( Previous data )

ARCHIVE   LOCAL FORECASTS   CLIMATE AVERAGES